Weather History for Rutland, VT

Change the Weather History Date:

Thursday, January 3, 2013

  Actual Average Record
Temperature  
Mean Temperature -2 °F -  
Max Temperature 10 °F - 60 °F (2000)
Min Temperature -15 °F - -15 °F (2013)
Degree Days  
Heating Degree Days 67    
Month to date heating degree days 169  
Since 1 July heating degree days 2579  
Cooling Degree Days 0    
Month to date cooling degree days 0  
Year to date cooling degree days 0  
Moisture  
Dew Point -9 °F    
Average Humidity 66    
Maximum Humidity 100    
Minimum Humidity 31    
Precipitation  
Precipitation 0.00 in - 1.45 in (1960)
Month to date precipitation 0.00  
Year to date precipitation 0.00  
Sea Level Pressure  
Sea Level Pressure 30.08 in    
Wind  
Wind Speed 2 mph (SE)    
Max Wind Speed 7 mph    
Max Gust Speed -    
Visibility 10 miles    
Events      
T = Trace of Precipitation, MM = Missing Value Source: NWS Daily Summary

Daily Weather History Graph

Daily Weather History Graph

Search for Another Location

Airport:

Trip Planner

Search our weather history database for the weather conditions in past years. The results will help you decide how hot, cold, wet, or windy it might be!

Date:

Astronomy

Jan. 03, 2013 Rise Set
Actual Time 7:25 AM EST 4:28 PM EST
Civil Twilight 6:52 AM EST 5:00 PM EST
Nautical Twilight 6:16 AM EST 5:36 PM EST
Astronomical Twilight 5:41 AM EST 6:11 PM EST
Moon 11:13 PM EST (1/3) 10:23 AM EST (1/3)
Length of Visible Light 10h 08m
Length of Day
9h 03m
Waning Gibbous, 65% of the Moon is Illuminated
Jan 3
Waning Gibbous
Jan 4
Last Quarter
Jan 11
New
Jan 18
First Quarter
Jan 26
Full

Hourly Weather History & Observations

Time (EST) Temp. Windchill Dew Point Humidity Pressure Visibility Wind Dir Wind Speed Gust Speed Precip Events Conditions
12:15 AM -5.8 °F - -7.6 °F 92% 30.18 in 10.0 mi Calm Calm - N/A   Clear
12:35 AM -5.8 °F - -9.4 °F 84% 30.18 in 10.0 mi Calm Calm - N/A   Clear
12:55 AM -5.8 °F - -11.2 °F 77% 30.19 in 10.0 mi Calm Calm - N/A   Clear
1:15 AM -7.6 °F - -9.4 °F 92% 30.18 in 10.0 mi Calm Calm - N/A   Clear
1:35 AM -7.6 °F - -9.4 °F 92% 30.18 in 10.0 mi Calm Calm - N/A   Clear
1:55 AM -7.6 °F - -11.2 °F 84% 30.18 in 10.0 mi Calm Calm - N/A   Clear
2:35 AM -9.4 °F - -9.4 °F 100% 30.17 in 10.0 mi Calm Calm - N/A   Clear
3:15 AM -9.4 °F -18.6 °F -9.4 °F 100% 30.17 in 10.0 mi East 3.5 mph - N/A   Clear
3:35 AM -9.4 °F - -14.8 °F 77% 30.17 in 10.0 mi Calm Calm - N/A   Clear
3:55 AM -9.4 °F - -14.8 °F 77% 30.16 in 10.0 mi Calm Calm - N/A   Clear
4:15 AM -11.2 °F - -13.0 °F 92% 30.15 in 10.0 mi Calm Calm - N/A   Clear
4:35 AM -11.2 °F -20.6 °F -14.8 °F 84% 30.15 in 10.0 mi SE 3.5 mph - N/A   Clear
4:55 AM -11.2 °F -20.6 °F -16.6 °F 77% 30.15 in 10.0 mi SE 3.5 mph - N/A   Clear
5:15 AM -11.2 °F -23.0 °F -14.8 °F 84% 30.16 in 10.0 mi SE 4.6 mph - N/A   Clear
5:35 AM -11.2 °F -24.8 °F -20.2 °F 64% 30.16 in 10.0 mi ESE 5.8 mph - N/A   Clear
5:55 AM -11.2 °F -24.8 °F -16.6 °F 77% 30.17 in 10.0 mi ESE 5.8 mph - N/A   Clear
6:15 AM -11.2 °F -20.6 °F -16.6 °F 77% 30.17 in 10.0 mi ESE 3.5 mph - N/A   Clear
6:35 AM -13.0 °F -27.0 °F -20.2 °F 70% 30.17 in 10.0 mi SE 5.8 mph - N/A   Clear
6:55 AM -13.0 °F -27.0 °F -18.4 °F 77% 30.17 in 10.0 mi ESE 5.8 mph - N/A   Clear
7:15 AM -13.0 °F -27.0 °F -20.2 °F 70% 30.17 in 10.0 mi SE 5.8 mph - N/A   Clear
7:35 AM -14.8 °F -29.1 °F -20.2 °F 77% 30.15 in 10.0 mi SE 5.8 mph - N/A   Clear
7:55 AM -13.0 °F -28.6 °F -20.2 °F 70% 30.14 in 10.0 mi SE 6.9 mph - N/A   Clear
8:35 AM -11.2 °F -27.8 °F -18.4 °F 70% 30.14 in 10.0 mi SE 8.1 mph - N/A   Clear
8:55 AM -11.2 °F -24.8 °F -16.6 °F 77% 30.14 in 10.0 mi SE 5.8 mph - N/A   Clear
9:15 AM -9.4 °F - -14.8 °F 77% 30.13 in 10.0 mi Calm Calm - N/A   Clear
9:35 AM -7.6 °F - -11.2 °F 84% 30.13 in 10.0 mi Calm Calm - N/A   Clear
9:55 AM -5.8 °F - -14.8 °F 65% 30.14 in 10.0 mi Calm Calm - N/A   Clear
10:15 AM -2.2 °F - -5.8 °F 85% 30.14 in 10.0 mi Calm Calm - N/A   Clear
10:35 AM -4.0 °F - -18.4 °F 50% 30.14 in 10.0 mi Calm Calm - N/A   Clear
10:55 AM -0.4 °F - -0.4 °F 100% 30.13 in 10.0 mi Calm Calm - N/A   Clear
11:35 AM -0.4 °F - -14.8 °F 51% 30.11 in 10.0 mi Calm Calm - N/A   Clear
11:55 AM 3.2 °F - -4.0 °F 72% 30.09 in 10.0 mi Calm Calm - N/A   Clear
12:15 PM 3.2 °F - -11.2 °F 51% 30.08 in 10.0 mi Calm Calm - N/A   Clear
12:55 PM 6.8 °F - -18.4 °F 31% 30.06 in 10.0 mi Calm Calm - N/A   Clear
1:15 PM 6.8 °F - -2.2 °F 67% 30.05 in 10.0 mi Calm Calm - N/A   Mostly Cloudy
1:35 PM 6.8 °F - -11.2 °F 44% 30.04 in 10.0 mi Calm Calm - N/A   Overcast
2:15 PM 8.6 °F - -7.6 °F 48% 30.02 in 10.0 mi Calm Calm - N/A   Overcast
2:35 PM 8.6 °F 2.0 °F -9.4 °F 44% 30.01 in 10.0 mi North 3.5 mph - N/A   Overcast
2:55 PM 8.6 °F - -13.0 °F 37% 30.01 in 10.0 mi Calm Calm - N/A   Overcast
3:15 PM 10.4 °F - -2.2 °F 57% 30.00 in 10.0 mi Calm Calm - N/A   Overcast
3:35 PM 10.4 °F - -9.4 °F 41% 29.99 in 10.0 mi Calm Calm - N/A   Overcast
3:55 PM 10.4 °F - -14.8 °F 31% 29.99 in 10.0 mi Calm Calm - N/A   Overcast
4:15 PM 10.4 °F - -0.4 °F 62% 29.99 in 10.0 mi Calm Calm - N/A   Overcast
5:15 PM 8.6 °F - - N/A% 29.99 in 10.0 mi Calm Calm - N/A   Overcast
5:35 PM 8.6 °F - -13.0 °F 37% 29.99 in 10.0 mi Calm Calm - N/A   Overcast
5:55 PM 8.6 °F - -5.8 °F 52% 29.99 in 10.0 mi Calm Calm - N/A   Overcast
6:15 PM 8.6 °F - -0.4 °F 67% 29.98 in 10.0 mi Calm Calm - N/A   Overcast
6:35 PM 8.6 °F - -0.4 °F 67% 29.98 in 10.0 mi Calm Calm - N/A   Overcast
6:55 PM 8.6 °F 2.0 °F -2.2 °F 62% 29.98 in 10.0 mi SE 3.5 mph - N/A   Overcast
7:15 PM 8.6 °F 2.0 °F -2.2 °F 62% 29.98 in 10.0 mi SE 3.5 mph - N/A   Overcast
7:35 PM 8.6 °F 2.0 °F 1.4 °F 73% 29.98 in 9.0 mi SSE 3.5 mph - N/A   Overcast
8:35 PM 10.4 °F - 5.0 °F 79% 29.97 in 10.0 mi Calm Calm - N/A   Overcast
9:15 PM 8.6 °F - -0.4 °F 67% 29.96 in 8.0 mi Calm Calm - N/A   Overcast
9:35 PM 8.6 °F - -0.4 °F 67% 29.96 in 10.0 mi Calm Calm - N/A   Overcast
9:55 PM 8.6 °F - 3.2 °F 79% 29.95 in 10.0 mi Calm Calm - N/A   Overcast
10:15 PM 8.6 °F 2.0 °F 5.0 °F 85% 29.95 in 10.0 mi South 3.5 mph - N/A   Overcast
10:55 PM 10.4 °F 2.2 °F 6.8 °F 85% 29.93 in 10.0 mi South 4.6 mph - N/A   Overcast
11:15 PM 10.4 °F 2.2 °F 5.0 °F 79% 29.92 in 10.0 mi SSE 4.6 mph - N/A   Overcast
11:55 PM 12.2 °F - 8.6 °F 85% 29.90 in 10.0 mi Calm Calm - N/A   Overcast